Regional Weather Roundup
Issued by NWS

Home | Current Version | Previous Version | Text Only | Print | Product List | Glossary Off
Versions: 1 2 3 4 5 6 7 8 9 10 11 12 13 14 15 16 17 18 19 20 21 22 23 24 25 26 27 28 29 30 31 32 33 34 35 36 37 38 39 40 41 42 43 44 45 46 47 48 49 50

000
ASUS43 KIND 032209
RWRIN

WEATHER ROUNDUP FOR INDIANA
NATIONAL WEATHER SERVICE INDIANAPOLIS IN
600 PM EDT SUN MAY 03 2015

NOTE: "FAIR" INDICATES FEW OR NO CLOUDS BELOW 12,000 FEET WITH NO
SIGNIFICANT WEATHER AND/OR OBSTRUCTIONS TO VISIBILITY.

* - STATION DOES NOT REPORT WEATHER SUCH AS PRECIPITATION OR FOG.

+ - STATION NOT QUALITY CONTROLLED BY THE NATIONAL WEATHER SERVICE.
    USE DATA WITH CAUTION...ESPECIALLY DEWPOINT AND RELATIVE
    HUMIDITY OBSERVATIONS.

INZ001>003-010>013-019-020-032300-
NORTHWEST INDIANA

CITY           SKY/WX    TMP DP  RH WIND       PRES   REMARKS
GARY /AIRPORT/ PTSUNNY   82 N/A N/A SW16      29.91F
KNOX *+        PTSUNNY   79  -2   4 SW15      29.95S
LA PORTE +     PTSUNNY   79  42  26 S10G17    29.96S
MICHIGAN CITY+ CLOUDY    75  32  20 S9        29.94F
MONTICELLO +   MOSUNNY   78  50  37 S14G20    29.97S
VALPARAISO     CLOUDY    79  42  26 S13G21    29.94F

$$

LMZ046-743>745-032300-
SOUTHERN LAKE MICHIGAN

STATION/POSITION TIME  TEMP    WIND        PRES    WAVE
                       AIR SEA DIR/SP/G            HT
                 (UTC) (F)     (DEG/KT/KT) (MB)    (FT)
BURNS HARBOR     2200   78     180/  9/ 17 1013.9S
MICHIGAN CITY    2200   77     170/ 10/ 13   N/A
5NW MICH CITY    2200   66 51  190/  6/  8   N/A     1

$$

INZ004-005-014>016-021>024-032300-
NORTH CENTRAL INDIANA

CITY           SKY/WX    TMP DP  RH WIND       PRES   REMARKS
ELKHART        PTSUNNY   79  37  22 SW12G17   29.98
GOSHEN         MOSUNNY   78  45  30 S12G23    29.98S
LOGANSPORT +   MOSUNNY   77  37  24 SW16      29.99S
PERU/GRISSOM   SUNNY     75  49  39 SW16G22   29.98F
ROCHESTER +    MOSUNNY   79  43  27 S10G17    29.98F
SOUTH BEND     CLOUDY    79  42  26 S16G24    29.97S
WARSAW +         N/A    N/A N/A N/A MISG        N/A

$$

INZ006>009-017-018-025>027-032300-
NORTHEAST INDIANA

CITY           SKY/WX    TMP DP  RH WIND       PRES   REMARKS
ANGOLA *+      MOSUNNY   77  70  78 SW14      30.00S
AUBURN +       MOSUNNY   77  43  29 S8        30.02S
FORT WAYNE     PTSUNNY   78  46  32 SW16      30.02S
HUNTINGTON +   MOSUNNY   76  45  32 SW12G18   30.01S

$$

INZ028-029-035-036-043>045-051>053-032300-
WEST CENTRAL INDIANA

CITY           SKY/WX    TMP DP  RH WIND       PRES   REMARKS
CRAWFORDSVL +  MOSUNNY   76  32  19 S16G22    30.00S
GREENCASTLE +  SUNNY     75  39  27 S9        30.02S
LAFAYETTE      MOSUNNY   78  46  32 S7G18     29.97F
TERRE HAUTE    MOSUNNY   77  47  34 S13       30.01S

$$

INZ030>032-037>040-046>048-054>057-064-065-032300-
CENTRAL INDIANA

CITY           SKY/WX    TMP DP  RH WIND       PRES   REMARKS
CP ATTERBURY + SUNNY     77  43  29 SW10G18   30.03S
COLUMBUS       SUNNY     75  41  29 S12       30.04
FISHERS *+     MOSUNNY   75  54  46 SW12      30.02S
FRANKFORT +    MOSUNNY   78  48  35 S9G16     30.02S
GREENWOOD *+   MOSUNNY   79  41  25 SW8       30.03
INDIANAPOLIS   MOSUNNY   78  46  32 S10       30.00F
-EAGLE CREEK   MOSUNNY   77  43  29 SW12G18   30.01S
MARION +       MOSUNNY   77  44  30 S12G20    30.02S
MT COMFORT *+  SUNNY     79  23  12 SW12      30.03S
SHELBYVILLE    SUNNY     79  48  33 S14       30.02F
ZIONSVILLE +   MOSUNNY   78  41  26 SW13      30.03S

$$

INZ033-034-041-042-049-050-058-059-032300-
EAST CENTRAL INDIANA

CITY           SKY/WX    TMP DP  RH WIND       PRES   REMARKS
MUNCIE         MOSUNNY   78  47  33 S9G20     30.03S

$$

INZ060-061-067>069-081>083-085>088-032300-
SOUTHWEST INDIANA

CITY           SKY/WX    TMP DP  RH WIND       PRES   REMARKS
EVANSVILLE     SUNNY     79  48  33 SW16G22   30.04S
HUNTINGBURG *+ SUNNY     79  48  34 S13       30.04F
WASHINGTON +   SUNNY     78  39  24 SW13      30.02F

$$

INZ062-063-066-070>080-084-089>092-032300-
SOUTH CENTRAL AND SOUTHEAST INDIANA

CITY           SKY/WX    TMP DP  RH WIND       PRES   REMARKS
BEDFORD +      SUNNY     77  41  27 SW14      30.04F
BLOOMINGTON    SUNNY     77  43  29 SW12      30.03F
MADISON *+     MOSUNNY   77  43  29 S7        30.08S
NORTH VERNON + MOSUNNY   77  46  33 S5        30.05F
SEYMOUR +      SUNNY     79  52  38 S12G17    30.03F

$$



USA.gov is the U.S. government's official web portal to all federal, state and local government web resources and services.